Regional Weather Roundup
Issued by NWS

Home | Current Version | Previous Version | Graphics & Text | Print | Product List | Glossary On
Versions: 1 2 3 4 5 6 7 8 9 10 11 12 13 14 15 16 17 18 19 20 21 22 23 24 25 26 27 28
000
ASUS45 KCYS 290910
RWRWY

WYOMING REGIONAL WEATHER ROUNDUP
NATIONAL WEATHER SERVICE CHEYENNE WY
300 AM MDT SAT APR 29 2017

NOTE:  "FAIR" INDICATES FEW OR NO CLOUDS BELOW 12,000 FEET
WITH NO SIGNIFICANT WEATHER AND/OR OBSTRUCTIONS TO VISIBILITY.

WYZ001-291000-
YELLOWSTONE NATIONAL PARK

CITY           SKY/WX    TMP DP  RH WIND       PRES   REMARKS
LK YELLOWSTONE   N/A     19  16  88 CALM      30.15S
W YELLOWSTONE  NOT AVBL

$$
WYZ002>013-054>058-071-098>099-291000-
NORTHERN WYOMING

CITY           SKY/WX    TMP DP  RH WIND       PRES   REMARKS
JACKSON        FAIR      30  25  80 N15       30.11S WCI  19
CODY           MOCLDY    34  28  79 CALM      30.18F
GREYBULL       MOCLDY    37  32  82 CALM      30.18S
WORLAND        FAIR      29  29 100 S5        30.19R WCI  24
SHERIDAN       FAIR      28  25  88 S5        30.19S WCI  23
BUFFALO        FAIR      29  17  61 W9        30.18R WCI  20
GILLETTE       FAIR      22  21  96 S8        30.20R WCI  12
HULETT         FAIR      30  27  86 S9        30.21R WCI  22
NEWCASTLE      FAIR      30  27  86 NE6       30.21R WCI  24

$$
WYZ014>020-022>026-101>103-291000-
CENTRAL WYOMING

CITY           SKY/WX    TMP DP  RH WIND       PRES   REMARKS
BIG PINEY      FAIR      19  17  92 W6        30.13R WCI  11
PINEDALE       PTSUNNY   27  19  74 SW7       30.12R WCI  19
DUBOIS         CLOUDY    25  23  93 SE6       30.12S WCI  18
LANDER         CLOUDY    27  25  92 NW7       30.17S WCI  19
RIVERTON       CLOUDY    27  24  89 W3        30.18R
CASPER         CLOUDY    29  27  92 N7        30.17S WCI  22
DOUGLAS        CLOUDY    25  24  96 CALM      30.20R

$$
WYZ021-027>030-104>119-291000-
SOUTHERN WYOMING

CITY           SKY/WX    TMP DP  RH WIND       PRES   REMARKS
EVANSTON       CLOUDY    26  22  84 NE12      30.08S WCI  16
FORT BRIDGER   CLOUDY    28  26  96 E9        30.12S WCI  19
ROCK SPRINGS   CLOUDY    27  20  75 NE16      30.09S WCI  15
DIXON            N/A     29  18  61 NE5       30.01R WCI  24
RAWLINS        CLOUDY    25  19  78 NE18G28   30.07R WCI  11
SARATOGA       FAIR      25  19  80 SE3       30.03F
LARAMIE        CLOUDY    24  20  84 E17       30.04F WCI  11
CHEYENNE       CLOUDY    27  25  92 NE10      30.08F WCI  17
TORRINGTON     CLOUDY    31  27  85 N6        30.14F WCI  25
PINE BLUFFS    CLOUDY    30  30 100 N10       30.10F WCI  21

$$




USA.gov is the U.S. government's official web portal to all federal, state and local government web resources and services.